リニア彗星

P/1998 VS24 ( LINEAR )

English version
Home page
Updated on December 5, 1999

---------------------------------------------------------------------

・ プロフィール

発見日 1998年11月10日
発見光度 18.5等
発見者 Lincoln Laboratory Near-Earth Asteroid Research project

・ 軌道要素

   The following improved orbital elements by Kenji Muraoka, are
  from 41 observations 1998 Oct. 24 to 1999 Jan. 14, perturbations
  by 9 Planets, Moon and 5 minor planets were taken into account. 
   The mean residual is +/- 0.67 arc seconds.

      Epoch  =  1998 Nov.  3.0  TT       JDT = 2451120.5
          T  =  1998 Nov.  2.74288       +/- 0.42378 (m.e.) TT
       Peri. =  244.49809                +/- 0.37616
       Node  =  159.20540                +/- 0.33259   (2000.0)
       Incl. =    5.03127                +/- 0.01276
          q  =    3.4053810              +/- 0.0003107 AU
          e  =    0.2439534              +/- 0.0000458
          a  =    4.5041946              +/- 0.0003072 AU
          n  =    0.10310467             +/- 0.00001055
          P  =    9.559                  +/- 0.0009781  years
                                        (+/- 0.36 day)

・ 星図

・ 光度変化

        m1 = 11.3 + 5 logΔ + 10.0 log r

---------------------------------------------------------------------

軌道要素は村岡健治氏の計算によるものです。
星図は StellaNavigator Ver.2.0 for Windows (アストロアーツ 編著 / アスキー出版局刊) で作成したものです。
光度グラフはComet for Windowsで作成したものです。

---------------------------------------------------------------------

Copyright(C) Seiichi Yoshida (comet@aerith.net). All rights reserved.